SV1BYK-2 Weather Reports


Display with metric or nautical units.
time (UTC)temp
F
wind
direction
speed
MPH
gust
MPH
rain 1hr
in
rain 24hr
in
rain mn
in
humidity
%
barometer
mb
20260903015615 84 272 1.0 4.0 0.00 0.00 0.00 38 1006.6
20260903014717 83 270 1.0 2.0 0.00 0.00 0.00 39 1006.4
20260903013815 83 270 0.0 2.0 0.00 0.00 0.00 40 1006.7
20260903012703 82 270 0.0 2.0 0.00 0.00 0.00 40 1006.7
20260903011803 83 270 0.0 2.0 0.00 0.00 0.00 40 1006.8
20260903010903 83 270 0.0 2.0 0.00 0.00 0.00 40 1006.8
20260903010004 83 270 1.0 2.0 0.00 0.00 0.00 39 1006.9
20260903005616 83 267 0.0 2.0 0.00 0.00 0.00 39 1006.9
20260903004713 83 267 0.0 2.0 0.00 0.00 0.00 39 1006.8
20260903003604 83 279 0.0 4.0 0.00 0.00 0.00 39 1007.0
20260903002918 83 284 1.0 2.0 0.00 0.00 0.00 39 1006.7
20260903002015 83 292 1.0 4.0 0.00 0.00 0.00 39 1006.8
20260903000903 83 292 1.0 4.0 0.00 0.00 0.00 39 1007.1
20260903000215 84 302 1.0 4.0 0.00 0.00 0.00 39 1006.9
20260902235616 84 307 2.0 4.0 0.00 0.00 0.00 39 1006.7
20260902234713 84 306 1.0 7.0 0.00 0.00 0.00 39 1006.8
20260902233604 84 272 1.0 4.0 0.00 0.00 0.00 39 1006.9
20260902232913 84 248 1.0 2.0 0.00 0.00 0.00 39 1007.0
20260902232016 84 285 1.0 2.0 0.00 0.00 0.00 39 1006.9
20260902230903 84 305 1.0 4.0 0.00 0.00 0.00 39 1007.1
20260902230215 84 292 1.0 4.0 0.00 0.00 0.00 38 1007.4
20260902225403 84 274 1.0 4.0 0.00 0.00 0.00 38 1006.8
20260902224714 84 232 2.0 4.0 0.00 0.00 0.00 39 1007.1
20260902223603 83 273 1.0 2.0 0.00 0.00 0.00 39 1007.2
20260902222703 84 259 1.0 2.0 0.00 0.00 0.00 38 1007.4
20260902222016 84 230 1.0 2.0 0.00 0.00 0.00 38 1007.3
20260902221113 84 251 1.0 2.0 0.00 0.00 0.00 38 1007.4
20260902220004 84 270 0.0 2.0 0.00 0.00 0.00 38 1007.5
20260902215403 84 270 0.0 2.0 0.00 0.00 0.00 37 1007.2
20260902214503 84 270 0.0 2.0 0.00 0.00 0.00 37 1007.6
20260902213817 84 270 0.0 2.0 0.00 0.00 0.00 37 1007.6
20260902212703 85 292 0.0 2.0 0.00 0.00 0.00 37 1007.8
20260902212017 85 292 0.0 4.0 0.00 0.00 0.00 37 1007.6
20260902210903 85 269 1.0 2.0 0.00 0.00 0.00 36 1007.5
20260902210222 85 274 1.0 2.0 0.00 0.00 0.00 36 1007.6
20260902205404 85 272 0.0 2.0 0.00 0.00 0.00 36 1007.9
20260902204715 85 287 1.0 2.0 0.00 0.00 0.00 36 1007.7
20260902203813 85 292 0.0 2.0 0.00 0.00 0.00 37 1007.8
20260902202704 85 286 0.0 2.0 0.00 0.00 0.00 36 1007.8
20260902201803 85 283 1.0 2.0 0.00 0.00 0.00 36 1007.7
20260902201115 86 310 0.0 4.0 0.00 0.00 0.00 36 1007.7
20260902200217 86 309 0.0 6.0 0.00 0.00 0.00 35 1008.0
20260902195403 86 295 1.0 2.0 0.00 0.00 0.00 35 1007.6
20260902194716 86 264 2.0 2.0 0.00 0.00 0.00 35 1007.8
20260902193813 86 271 1.0 2.0 0.00 0.00 0.00 35 1007.9
20260902192916 86 280 0.0 2.0 0.00 0.00 0.00 35 1007.7
20260902192013 86 292 0.0 2.0 0.00 0.00 0.00 35 1007.8
20260902191115 86 286 0.0 4.0 0.00 0.00 0.00 35 1007.7
20260902190004 87 297 1.0 4.0 0.00 0.00 0.00 35 1008.1
20260902185614 87 293 0.0 4.0 0.00 0.00 0.00 34 1007.8
20260902184503 87 288 0.0 4.0 0.00 0.00 0.00 34 1007.8
20260902183603 87 288 0.0 2.0 0.00 0.00 0.00 34 1007.5
20260902182916 87 282 1.0 4.0 0.00 0.00 0.00 34 1007.9
20260902182014 88 267 1.0 4.0 0.00 0.00 0.00 33 1007.6
20260902180904 88 288 1.0 4.0 0.00 0.00 0.00 33 1007.8
20260902180006 88 249 1.0 4.0 0.00 0.00 0.00 33 1007.4
20260902175404 88 261 1.0 4.0 0.00 0.00 0.00 33 1007.4
20260902174503 89 235 2.0 4.0 0.00 0.00 0.00 33 1007.3
20260902173815 89 233 2.0 4.0 0.00 0.00 0.00 32 1007.5
20260902172917 89 259 2.0 6.0 0.00 0.00 0.00 32 1007.6
20260902171803 89 272 1.0 7.0 0.00 0.00 0.00 32 1007.1
20260902171117 89 280 3.0 7.0 0.00 0.00 0.00 32 1007.2
20260902170214 90 224 3.0 7.0 0.00 0.00 0.00 32 1007.0
20260902165616 90 231 2.0 6.0 0.00 0.00 0.00 32 1007.1
20260902164504 90 220 3.0 8.0 0.00 0.00 0.00 32 1007.2
20260902163604 91 248 3.0 8.0 0.00 0.00 0.00 31 1007.2
20260902162918 91 238 2.0 7.0 0.00 0.00 0.00 31 1007.3
20260902162015 92 256 3.0 7.0 0.00 0.00 0.00 31 1007.4
20260902161117 93 248 2.0 4.0 0.00 0.00 0.00 30 1007.4
20260902160005 94 254 2.0 6.0 0.00 0.00 0.00 29 1007.4
20260902155403 94 251 2.0 4.0 0.00 0.00 0.00 29 1007.7
20260902154713 95 262 2.0 7.0 0.00 0.00 0.00 29 1007.4
20260902153816 94 241 2.0 7.0 0.00 0.00 0.00 29 1007.6
20260902152704 95 251 2.0 8.0 0.00 0.00 0.00 28 1007.4
20260902152016 95 248 3.0 8.0 0.00 0.00 0.00 28 1007.3
20260902150904 97 226 2.0 7.0 0.00 0.00 0.00 27 1007.4
20260902150215 97 257 2.0 7.0 0.00 0.00 0.00 27 1007.4
20260902145403 97 261 2.0 8.0 0.00 0.00 0.00 27 1007.5
20260902144714 96 284 2.0 8.0 0.00 0.00 0.00 27 1007.5
20260902143603 96 277 2.0 8.0 0.00 0.00 0.00 27 1007.6
20260902142914 96 260 3.0 8.0 0.00 0.00 0.00 27 1007.4
20260902141803 96 257 3.0 8.0 0.00 0.00 0.00 27 1007.8
20260902140904 96 236 4.0 9.0 0.00 0.00 0.00 26 1007.7
20260902140004 96 277 3.0 9.0 0.00 0.00 0.00 26 1007.6
20260902135404 96 247 4.0 9.0 0.00 0.00 0.00 26 1007.7
20260902134504 96 254 6.0 9.0 0.00 0.00 0.00 26 1007.7
20260902133603 97 255 3.0 9.0 0.00 0.00 0.00 26 1008.0
20260902132703 97 206 4.0 11.0 0.00 0.00 0.00 25 1007.8
20260902131803 97 246 4.0 9.0 0.00 0.00 0.00 25 1007.8
20260902131114 97 277 4.0 8.0 0.00 0.00 0.00 25 1007.9
20260902130004 97 249 4.0 9.0 0.00 0.00 0.00 24 1008.2
20260902125613 98 260 3.0 8.0 0.00 0.00 0.00 24 1007.9
20260902124504 97 255 4.0 11.0 0.00 0.00 0.00 25 1007.9
20260902123604 96 232 4.0 11.0 0.00 0.00 0.00 25 1008.4
20260902122915 97 247 4.0 9.0 0.00 0.00 0.00 25 1008.2
20260902121803 97 219 5.0 13.0 0.00 0.00 0.00 24 1008.5
20260902120903 97 172 4.0 8.0 0.00 0.00 0.00 24 1008.4
20260902120217 97 226 3.0 9.0 0.00 0.00 0.00 24 1008.6
20260902115403 96 251 5.0 9.0 0.00 0.00 0.00 24 1008.6
20260902114716 97 233 5.0 9.0 0.00 0.00 0.00 25 1008.7
20260902113813 96 225 3.0 8.0 0.00 0.00 0.00 25 1008.9
20260902112916 96 246 4.0 11.0 0.00 0.00 0.00 25 1008.7
20260902112013 96 243 4.0 11.0 0.00 0.00 0.00 25 1008.7
20260902111115 96 249 4.0 11.0 0.00 0.00 0.00 24 1008.8
20260902110006 97 215 2.0 11.0 0.00 0.00 0.00 23 1009.0
20260902105404 96 240 4.0 11.0 0.00 0.00 0.00 24 1008.9
20260902104504 96 243 3.0 11.0 0.00 0.00 0.00 23 1008.9
20260902103603 97 257 3.0 9.0 0.00 0.00 0.00 23 1009.1
20260902102916 96 258 4.0 11.0 0.00 0.00 0.00 24 1009.0
20260902101803 96 237 4.0 11.0 0.00 0.00 0.00 24 1009.1
20260902101116 96 232 3.0 11.0 0.00 0.00 0.00 24 1008.9
20260902100213 95 222 4.0 9.0 0.00 0.00 0.00 25 1009.0
20260902095615 95 209 4.0 13.0 0.00 0.00 0.00 25 1009.2
20260902094717 95 201 4.0 13.0 0.00 0.00 0.00 25 1009.2
20260902093815 95 198 5.0 11.0 0.00 0.00 0.00 26 1009.1
20260902092704 95 276 3.0 11.0 0.00 0.00 0.00 26 1009.3
20260902091803 96 255 2.0 9.0 0.00 0.00 0.00 26 1009.3
20260902091117 95 247 4.0 8.0 0.00 0.00 0.00 26 1009.4
20260902090214 96 235 3.0 15.0 0.00 0.00 0.00 27 1009.4
20260902085616 96 230 2.0 15.0 0.00 0.00 0.00 28 1009.1
20260902084713 94 250 5.0 11.0 0.00 0.00 0.00 28 1009.3
20260902083815 94 262 4.0 11.0 0.00 0.00 0.00 28 1009.3
20260902082704 94 257 3.0 14.0 0.00 0.00 0.00 29 1009.1
20260902082015 93 242 3.0 8.0 0.00 0.00 0.00 29 1009.2
20260902081117 94 254 2.0 13.0 0.00 0.00 0.00 29 1009.2
20260902080004 93 296 3.0 11.0 0.00 0.00 0.00 29 1009.3
20260902075616 93 255 2.0 7.0 0.00 0.00 0.00 29 1009.2
20260902074713 92 234 3.0 8.0 0.00 0.00 0.00 30 1009.3
20260902073603 92 234 4.0 8.0 0.00 0.00 0.00 30 1009.3
20260902072703 92 250 2.0 7.0 0.00 0.00 0.00 30 1009.3
20260902071803 91 258 2.0 8.0 0.00 0.00 0.00 31 1009.0
20260902070904 91 249 4.0 8.0 0.00 0.00 0.00 31 1009.0
20260902070006 91 257 3.0 7.0 0.00 0.00 0.00 32 1009.2
20260902065617 91 257 2.0 8.0 0.00 0.00 0.00 31 1009.2
20260902064714 90 268 4.0 8.0 0.00 0.00 0.00 32 1009.0
20260902063603 90 222 2.0 6.0 0.00 0.00 0.00 31 1008.8
20260902062703 90 249 2.0 4.0 0.00 0.00 0.00 32 1008.9
20260902062016 90 252 2.0 4.0 0.00 0.00 0.00 33 1009.0
20260902061113 90 254 2.0 4.0 0.00 0.00 0.00 33 1008.9
20260902060216 89 275 1.0 4.0 0.00 0.00 0.00 33 1008.9
20260902055403 89 303 2.0 4.0 0.00 0.00 0.00 36 1008.8
20260902054504 89 257 0.0 2.0 0.00 0.00 0.00 38 1008.8
20260902053817 88 270 0.0 2.0 0.00 0.00 0.00 41 1008.8
20260902052704 87 0 0.0 0.0 0.00 0.00 0.00 40 1008.8
20260902052017 86 267 0.0 4.0 0.00 0.00 0.00 43 1009.1
20260902051114 85 292 0.0 2.0 0.00 0.00 0.00 44 1009.0
20260902050006 83 292 0.0 2.0 0.00 0.00 0.00 48 1009.1
20260902045403 83 292 0.0 2.0 0.00 0.00 0.00 48 1009.1
20260902044503 83 292 0.0 2.0 0.00 0.00 0.00 47 1009.0
20260902043603 82 292 1.0 2.0 0.00 0.00 0.00 49 1008.8
20260902042704 82 283 0.0 2.0 0.00 0.00 0.00 49 1008.9
20260902041804 81 276 0.0 2.0 0.00 0.00 0.00 49 1008.8
20260902041115 81 281 2.0 2.0 0.00 0.00 0.00 50 1008.6
20260902040217 81 239 2.0 2.0 0.00 0.00 0.00 50 1008.8
20260902035614 81 154 0.0 2.0 0.00 0.00 0.00 50 1008.9
20260902034503 82 261 1.0 2.0 0.00 0.00 0.00 49 1008.6
20260902033813 82 270 1.0 2.0 0.00 0.00 0.00 49 1008.5
20260902032916 82 283 0.0 2.0 0.00 0.00 0.00 48 1008.6
20260902031803 82 290 2.0 2.0 0.00 0.00 0.00 47 1008.4
20260902030904 81 292 0.0 2.0 0.00 0.00 0.00 47 1008.4
20260902030218 82 292 1.0 2.0 0.00 0.00 0.00 47 1008.2
20260902025614 82 292 0.0 4.0 0.00 0.00 0.00 47 1008.4
20260902024717 83 299 1.0 4.0 0.00 0.00 0.00 47 1008.2
20260902023814 83 302 0.0 4.0 0.00 0.00 0.00 46 1008.1
20260902022703 83 295 3.0 6.0 0.00 0.00 0.00 45 1008.3
20260902022014 83 298 4.0 4.0 0.00 0.00 0.00 45 1008.1
20260902021116 83 305 4.0 6.0 0.00 0.00 0.00 44 1008.3
20260902020004 83 306 4.0 4.0 0.00 0.00 0.00 44 1008.4